PROBA 1

导读

PROBA-1是欧洲空间局(ESA)于2001年10月22日发射的微小技术验证卫星,作为欧洲空间局“项目自适应性微卫星”计划的首星,开创了欧洲小卫星技术验证新模式。卫星质量仅约94千克,主要任务是验证新型空间技术,包括自主在轨运行控制、高性能遥感仪器等,同时开展地球观测实验,其搭载的CHRIS传感器可获取多角度多光谱遥感数据,为植被监测、环境研究提供了独特观测资料,服役超二十年仍持续贡献空间技术与科学数据。

基本信息
目录编号:
26958
目录名称:
PROBA 1
国际标识:
2001-049B
轨道中心:
EARTH
卫星名称:
PROBA 1
卫星全名:
--
卫星状态:
在轨 (已飞行9004 天)
发射日期:
2001-10-22 UTC
国别 :
(ESA)
星等 :
--
轨道信息
数据来源 国际轨道数据
星历时间: 2026-06-17T12:52:23+0800
8小时前
查看轨道信息
半长轴: 6921.995km
偏心率: 0.0056447
轨道倾角: 97.959°
近地点辐角 121.758°
升交点赤经 176.736°
平近点角 238.916°
近地点: 504.785km
远地点: 582.931km
周期: 95.523分钟
每日圈数: 15.07495
详细信息
使用方式:
暂无
2D轨道图
3D轨道图
轨道高度分析图
轨道倾角分析图
轨道综合分析图
查看轨道综合分析图